Location: Palo Alto
(37.4420°N, 122.1420°W)
Time: 20:06:01
(UTC-07:00)

ISS - All Passes

Search period start: 28 August 2015 00:00
Search period end: 07 September 2015 00:00
Orbit: 399 x 401 km, 51.6° (Epoch: 28 August)

Date Brightness Start Highest point End Pass type
(mag) Time Alt. Az. Time Alt. Az. Time Alt. Az.
28 Aug - 09:32:33 10° S 09:34:46 18° SE 09:37:03 10° E daylight
28 Aug - 11:07:53 10° WSW 11:10:58 39° NW 11:14:03 10° NE daylight
28 Aug - 16:01:18 10° NNW 16:03:20 16° NNE 16:05:25 10° ENE daylight
28 Aug - 17:36:51 10° NW 17:40:06 77° SW 17:43:19 10° SE daylight
29 Aug - 10:14:08 10° SW 10:17:23 83° NW 10:20:38 10° NE daylight
29 Aug - 11:52:24 10° NW 11:54:13 14° NNW 11:55:59 10° N daylight
29 Aug - 15:08:32 10° N 15:09:29 11° NNE 15:10:29 10° NE daylight
29 Aug - 16:43:21 10° NW 16:46:32 49° NE 16:49:41 10° ESE daylight
29 Aug - 18:20:49 10° W 18:22:39 14° SW 18:24:23 10° SSW daylight
30 Aug - 09:20:46 10° SSW 09:23:51 43° SE 09:26:58 10° ENE daylight
30 Aug - 10:57:50 10° W 11:00:23 21° NNW 11:02:56 10° NNE daylight
30 Aug - 15:50:01 10° NNW 15:52:50 27° NNE 15:55:40 10° E daylight
30 Aug - 17:26:21 10° WNW 17:29:13 29° SW 17:32:03 10° SSE daylight
31 Aug - 08:27:56 10° S 08:30:23 20° SE 08:32:53 10° E daylight
31 Aug - 10:03:37 10° WSW 10:06:38 35° NNW 10:09:39 10° NE daylight
31 Aug - 14:56:48 10° NNW 14:59:01 17° NNE 15:01:16 10° ENE daylight
31 Aug - 16:32:29 10° NW 16:35:42 65° SW 16:38:54 10° SE daylight
01 Sep - 09:09:42 10° SW 09:12:56 71° NW 09:16:11 10° NE daylight
01 Sep - 10:48:14 10° NW 10:49:51 13° NNW 10:51:24 10° N daylight
01 Sep - 14:03:51 10° N 14:05:06 12° NNE 14:06:24 10° NE daylight
01 Sep - 15:38:52 10° NW 15:42:04 57° NE 15:45:16 10° ESE daylight
01 Sep - 17:16:46 10° WSW 17:18:09 12° SW 17:19:25 10° SSW daylight
02 Sep - 08:16:10 10° SSW 08:19:19 51° SE 08:22:29 10° ENE daylight
02 Sep - 09:53:30 10° WNW 09:55:55 19° NNW 09:58:19 10° NNE daylight
02 Sep - 14:45:25 10° NNW 14:48:20 30° NNE 14:51:15 10° E daylight
02 Sep - 16:21:55 10° WNW 16:24:39 25° SW 16:27:21 10° S daylight
03 Sep - 07:23:07 10° S 07:25:45 23° SE 07:28:26 10° ENE daylight
03 Sep - 08:59:07 10° W 09:02:03 31° NNW 09:05:00 10° NNE daylight
03 Sep - 13:52:06 10° NNW 13:54:27 18° NNE 13:56:50 10° ENE daylight
03 Sep - 15:27:54 10° WNW 15:31:04 55° SW 15:34:14 10° SE daylight
04 Sep - 06:31:11 10° SSE 06:32:13 11° SE 06:33:23 10° ESE daylight
04 Sep - 08:05:03 10° WSW 08:08:16 60° NW 08:11:29 10° NE daylight
04 Sep - 09:43:50 10° NW 09:45:13 12° NNW 09:46:34 10° N daylight
04 Sep - 12:58:59 10° N 13:00:28 13° NNE 13:02:00 10° NE daylight
04 Sep - 14:34:09 10° NW 14:37:24 66° NE 14:40:36 10° ESE daylight
04 Sep - 16:12:50 10° WSW 16:13:24 10° SW 16:13:49 10° SW daylight
05 Sep - 07:11:22 10° SW 07:14:33 61° SE 07:17:46 10° ENE daylight
05 Sep - 08:48:55 10° WNW 08:51:12 17° NNW 08:53:28 10° NNE daylight
05 Sep - 13:40:36 10° NNW 13:43:35 33° NNE 13:46:34 10° E daylight
05 Sep - 15:17:16 10° W 15:19:50 22° SW 15:22:22 10° S daylight
06 Sep - 06:18:07 10° SSW 06:20:54 27° SE 06:23:43 10° ENE visible
06 Sep - 07:54:23 10° W 07:57:14 28° NNW 08:00:06 10° NNE daylight
06 Sep - 12:47:10 10° NNW 12:49:38 20° NNE 12:52:09 10° ENE daylight
06 Sep - 14:23:03 10° WNW 14:26:12 46° SW 14:29:18 10° SSE daylight
